RAINCUBE (43548 NORAD) Tracking and Keplerian Element Data

This shows tracking and keplerian element data for the satellite.

Feedback or suggestion? Click here.




ElementValue
Catalog43548
NameRAINCUBE
Epoch Orbit1939
Epoch Day318.75722764
Epoch Year2018
RAAN346.9221
Inclination51.6401
Eccentricity0.000666
Argument of Perigee47.306
Mean Anonmoly312.8492
Mean Motion15.56642769
Decay Rate8.235E-05
L11 43548U 98067NW 18318.75722764 .00008235 00000-0 12004-3 0 9993
L22 43548 51.6401 346.9221 0006660 47.3060 312.8492 15.56642769 19390

Live tracking and technical data element details for RAINCUBE (NORAD 43548). RAINCUBE can be tracked NOW for your location showing map with azimuth and elevation plus other details from your city location.

Track the satellite on the map from your city or location and see movement details for azimuth, elevation, latitude, longitude, range, height, and movement on the map or in text.







IsCatalogInMostPopularTable: catalog: 43548, numindb: 47
Update: records affected: 1



GetName: 43548 RAINCUBE

Hit Count: updated at: Fri, 16 Nov 2018 03:43:18 GMT